EW1390 Weather Reports


time (UTC)temp
C
wind
direction
speed
KPH
gust
KPH
rain 1hr
cm
rain 24hr
cm
rain mn
cm
humidity
%
barometer
mb
20260902224510 25 223 3.2 12.9 0.00 0.00 0.00 35 1009.2
20260902223010 24 150 1.6 9.7 0.00 0.00 0.00 35 1009.2
20260902221507 24 248 4.8 14.5 0.00 0.00 0.00 34 1009.3
20260902220008 25 260 3.2 16.1 0.00 0.00 0.00 34 1009.4
20260902214506 25 59 1.6 9.7 0.00 0.00 0.00 35 1009.6
20260902213003 24 226 1.6 12.9 0.00 0.00 0.00 35 1009.8
20260902211502 24 234 1.6 9.7 0.00 0.00 0.00 36 1009.8
20260902210059 24 229 0.0 6.4 0.00 0.00 0.00 36 1009.9
20260902204606 23 229 6.4 16.1 0.00 0.00 0.00 36 1009.9
20260902203056 23 229 3.2 12.9 0.00 0.00 0.00 37 1010.1
20260902201616 23 117 3.2 22.5 0.00 0.00 0.00 38 1010.2
20260902200054 23 132 3.2 12.9 0.00 0.00 0.00 40 1010.3
20260902194553 23 85 3.2 16.1 0.00 0.00 0.00 40 1010.3
20260902193050 23 117 1.6 12.9 0.00 0.00 0.00 41 1010.3
20260902191547 22 188 1.6 12.9 0.00 0.00 0.00 41 1010.5
20260902190046 22 208 3.2 11.3 0.00 0.00 0.00 42 1010.6
20260902184545 22 239 1.6 12.9 0.00 0.00 0.00 42 1010.7
20260902183042 21 130 1.6 11.3 0.00 0.00 0.00 45 1010.8
20260902181540 21 156 0.0 8.0 0.00 0.00 0.00 46 1010.9
20260902180036 21 138 1.6 9.7 0.00 0.00 0.00 47 1010.8
20260902174544 20 54 0.0 6.4 0.00 0.00 0.00 49 1010.7
20260902173029 20 200 0.0 4.8 0.00 0.00 0.00 50 1010.6
20260902171526 19 153 0.0 4.8 0.00 0.00 0.00 52 1010.6
20260902170031 18 207 0.0 4.8 0.00 0.00 0.00 55 1010.7
20260902164526 17 246 0.0 4.8 0.00 0.00 0.00 60 1010.7
20260902163012 16 328 0.0 4.8 0.00 0.00 0.00 67 1010.7
20260902161521 15 331 0.0 0.0 0.00 0.00 0.00 75 1010.5
20260902160007 13 331 0.0 0.0 0.00 0.00 0.00 82 1010.5
20260902154605 12 331 0.0 0.0 0.00 0.00 0.00 83 1010.5
20260902153058 12 331 0.0 0.0 0.00 0.00 0.00 84 1010.4
20260902151657 11 331 0.0 0.0 0.00 0.00 0.00 85 1010.6
20260902150056 10 331 0.0 0.0 0.00 0.00 0.00 86 1010.7
20260902144559 10 331 0.0 0.0 0.00 0.00 0.00 87 1010.6
20260902143052 8 331 0.0 0.0 0.00 0.00 0.00 87 1010.4
20260902141550 8 331 0.0 0.0 0.00 0.00 0.00 86 1010.0
20260902140049 8 331 0.0 0.0 0.00 0.00 0.00 86 1010.0
20260902134548 8 331 0.0 0.0 0.00 0.00 0.00 86 1010.0
20260902133055 8 331 0.0 0.0 0.00 0.00 0.00 85 1009.6
20260902131556 8 331 0.0 0.0 0.00 0.00 0.00 85 1009.6
20260902130044 8 331 0.0 0.0 0.00 0.00 0.00 85 1009.5
20260902124544 8 331 0.0 0.0 0.00 0.00 0.00 85 1009.3
20260902123043 8 331 0.0 0.0 0.00 0.00 0.00 85 1009.3
20260902121543 8 331 0.0 0.0 0.00 0.00 0.00 85 1009.4
20260902120041 8 331 0.0 0.0 0.00 0.00 0.00 84 1009.4
20260902114544 8 331 0.0 0.0 0.00 0.00 0.00 84 1009.4
20260902113052 8 331 0.0 0.0 0.00 0.00 0.00 83 1009.7
20260902111538 8 331 0.0 0.0 0.00 0.00 0.00 83 1009.7
20260902110036 8 331 0.0 0.0 0.00 0.00 0.00 83 1009.7
20260902104551 8 331 0.0 0.0 0.00 0.00 0.00 83 1009.8
20260902103033 8 331 0.0 0.0 0.00 0.00 0.00 82 1009.6
20260902101537 8 331 0.0 1.6 0.00 0.00 0.00 83 1009.5
20260902100029 9 331 0.0 0.0 0.00 0.00 0.00 82 1009.4
20260902094528 9 331 0.0 0.0 0.00 0.00 0.00 82 1009.4
20260902093027 9 331 0.0 0.0 0.00 0.00 0.00 81 1009.4
20260902091530 10 331 0.0 0.0 0.00 0.00 0.00 80 1009.4
20260902090021 10 331 0.0 1.6 0.00 0.00 0.00 80 1009.3
20260902084520 10 331 0.0 0.0 0.00 0.00 0.00 80 1009.5
20260902083017 10 331 0.0 0.0 0.00 0.00 0.00 79 1009.6
20260902081521 10 331 0.0 1.6 0.00 0.00 0.00 78 1009.7
20260902080014 11 331 1.6 3.2 0.00 0.00 0.00 78 1009.6
20260902074510 11 331 0.0 3.2 0.00 0.00 0.00 76 1009.5
20260902073007 11 331 0.0 0.0 0.00 0.00 0.00 75 1009.3
20260902071504 12 331 0.0 0.0 0.00 0.00 0.00 74 1009.4
20260902070100 12 331 0.0 0.0 0.00 0.00 0.00 73 1009.5
20260902064559 12 331 0.0 0.0 0.00 0.00 0.00 73 1009.6
20260902063059 13 331 0.0 1.6 0.00 0.00 0.00 72 1009.5
20260902061559 13 331 0.0 1.6 0.00 0.00 0.00 72 1009.8
20260902060105 13 331 0.0 6.4 0.00 0.00 0.00 71 1009.9
20260902054607 13 228 0.0 4.8 0.00 0.00 0.00 70 1010.0
20260902053111 14 228 0.0 3.2 0.00 0.00 0.00 70 1009.8
20260902051604 14 228 0.0 4.8 0.00 0.00 0.00 69 1009.9
20260902050059 14 207 1.6 12.9 0.00 0.00 0.00 68 1009.9
20260902044552 14 257 1.6 9.7 0.00 0.00 0.00 68 1009.7
20260902043058 13 227 0.0 3.2 0.00 0.00 0.00 67 1009.4
20260902041548 13 227 0.0 0.0 0.00 0.00 0.00 63 1009.1
20260902040046 14 227 0.0 0.0 0.00 0.00 0.00 61 1008.8
20260902034545 15 227 0.0 1.6 0.00 0.00 0.00 60 1008.6
20260902033046 15 227 0.0 1.6 0.00 0.00 0.00 58 1008.4
20260902031544 16 227 0.0 3.2 0.00 0.00 0.00 56 1008.2
20260902030043 16 227 0.0 3.2 0.00 0.00 0.00 54 1008.0
20260902024542 17 227 0.0 1.6 0.00 0.00 0.00 52 1007.8
20260902023048 18 227 0.0 3.2 0.00 0.00 0.00 49 1007.6
20260902021542 19 227 1.6 4.8 0.00 0.00 0.00 48 1007.5
20260902020041 20 227 0.0 4.8 0.00 0.00 0.00 46 1007.3
20260902014544 21 227 0.0 3.2 0.00 0.00 0.00 42 1007.1
20260902013039 21 227 0.0 3.2 0.00 0.00 0.00 43 1007.1
20260902011550 21 227 0.0 3.2 0.00 0.00 0.00 43 1007.0
20260902010038 21 205 1.6 6.4 0.00 0.00 0.00 41 1007.1
20260902004537 22 161 0.0 6.4 0.00 0.00 0.00 40 1007.2
20260902003037 22 229 1.6 6.4 0.00 0.00 0.00 40 1007.1
20260902001535 23 302 1.6 11.3 0.00 0.00 0.00 39 1007.1
20260902000040 22 229 0.0 11.3 0.00 0.00 0.00 41 1007.2
20260901234533 22 217 0.0 9.7 0.00 0.00 0.00 41 1007.2
20260901233033 22 225 1.6 8.0 0.00 0.00 0.00 39 1007.3
20260901231540 23 262 1.6 6.4 0.00 0.00 0.00 39 1007.3
20260901230032 23 229 1.6 8.0 0.00 0.00 0.00 38 1007.5